SCP
1 1 0 0 0 0 0 0 0 0 0 0 0 0 0 0 0 0 0 0 0 0
0 0 0 0 0 0 0 0 0 0 0 0 0 0 0 0 0 0 0 0 0 0
0 0 0 0 0 0 0 0 0 0 0 0 0 0 0 0 0 0 0 0 0 0
0 0 0 0 0 0 0 0 0 0 0 0 0 0 0 0 0 0 0 0 0 0
0 0 0 0 0 0 0 0 0 0 0 0 0 0 0 0 0 0 0 0 0 0
0 0 0 0 0 0 0 0 0 0 0 0 0 0 0 0 0 0 0 0 0 0
0 0 0 0 0 0 0 0 0 0 0 0 0 0 0 0 0 0 0 0 0 0
0 0 0 0 0 0 0 0 0 0 0 0 0 0 0 0 0 0 0 0 0 0
0 0 0 0 0 0 0 0 0 0 0 0 0 0 0 0 0 0 0 0 0 0
0 0 0 0 0 0 0 0 0 0 0 0 0 0 0 0 0 0 0 0 0 0
0 0 0 0 0 0 0 0 0 0 0 0 0 0 0 0 0 0 0 0 0 0
0 0 0 0 0 0 0 0 0 0 0 0 0 0 0 0 0 0 0 0 0 0
0 0 0 0 0 0 0 0 0 0 0 0 0 0 0 0 0 0 0 0 0 0
0 0 0 0 0 0 0 0 0 0 0 0 0 0 0 0 0 0 0 0 0 0
Wind_Speed_500mb
28 21 19 19 15 9 9 12 27 23 21 18 17 18 18 20 20 21 24 29 34 40
25 24 23 18 12 14 17 12 20 20 14 14 16 18 22 23 24 27 28 34 37 37
27 26 20 14 12 18 18 19 13 11 14 17 20 22 24 25 25 29 38 41 40 52
26 22 15 15 15 14 14 11 11 14 18 21 24 26 28 29 32 33 38 42 48 44
24 19 15 12 12 12 10 12 14 19 22 25 26 29 29 30 33 36 40 45 45 42
24 18 13 10 10 11 11 15 18 21 25 25 27 28 28 32 34 38 42 48 45 54
22 16 12 10 11 11 13 17 20 22 24 26 28 28 31 32 33 41 46 50 48 54
18 14 11 11 11 13 14 18 21 24 26 27 28 29 31 35 43 45 45 46 51 53
18 14 13 12 13 13 16 18 22 24 26 27 29 37 48 52 50 45 39 48 57 61
17 14 14 12 12 13 16 20 22 24 26 30 33 40 47 54 52 38 41 51 57 54
16 13 11 10 12 14 18 21 25 25 28 32 35 41 48 50 43 39 44 48 56 56
14 11 9 11 13 17 20 23 25 27 31 34 34 46 48 45 51 41 47 45 51 57
12 9 8 9 15 17 20 23 25 30 32 36 38 44 41 53 40 48 51 60 63 54
9 7 5 9 13 17 19 24 28 31 35 37 32 32 45 48 40 38 53 62 60 52
Wind_Direction_500mb
196 185 183 173 198 203 226 257 272 299 308 310 303 301 297 302 293 292 293 298 312 309
173 176 189 210 222 252 263 266 297 307 300 291 292 296 292 297 290 292 297 299 301 302
191 196 210 234 236 255 259 286 278 281 281 290 293 294 290 295 295 293 295 303 298 306
188 197 219 247 259 273 283 277 278 280 284 289 290 291 289 291 295 296 302 299 303 305
188 205 227 241 253 266 265 262 281 289 290 291 293 292 287 288 293 295 297 300 302 306
197 204 220 233 237 248 261 279 286 290 290 291 289 287 288 291 293 296 297 302 298 305
200 202 209 217 228 245 269 283 290 292 291 288 291 290 291 293 294 297 297 300 299 298
196 197 212 224 234 257 274 285 292 295 294 295 293 299 284 288 297 298 295 296 299 302
188 195 214 227 251 270 280 289 295 295 295 296 298 293 292 297 301 300 291 299 298 300
190 201 216 239 255 277 287 293 299 296 295 298 300 300 299 301 306 302 301 306 309 303
196 202 227 246 276 288 294 298 298 297 302 302 307 302 304 307 316 312 311 309 309 308
199 212 236 270 289 293 300 298 298 306 304 305 306 305 302 315 323 316 316 315 312 305
199 204 243 283 290 296 299 304 305 304 309 311 309 304 306 313 314 318 315 319 313 309
188 215 259 286 300 301 306 303 308 313 314 309 311 315 313 314 319 322 317 316 311 308
Wind_Speed_850mb
28 21 19 19 15 9 9 12 27 23 21 18 17 18 18 20 20 21 24 29 34 40
25 24 23 18 12 14 17 12 20 20 14 14 16 18 22 23 24 27 28 34 37 37
27 26 20 14 12 18 18 19 13 11 14 17 20 22 24 25 25 29 38 41 40 52
26 22 15 15 15 14 14 11 11 14 18 21 24 26 28 29 32 33 38 42 48 44
24 19 15 12 12 12 10 12 14 19 22 25 26 29 29 30 33 36 40 45 45 42
24 18 13 10 10 11 11 15 18 21 25 25 27 28 28 32 34 38 42 48 45 54
22 16 12 10 11 11 13 17 20 22 24 26 28 28 31 32 33 41 46 50 48 54
18 14 11 11 11 13 14 18 21 24 26 27 28 29 31 35 43 45 45 46 51 53
18 14 13 12 13 13 16 18 22 24 26 27 29 37 48 52 50 45 39 48 57 61
17 14 14 12 12 13 16 20 22 24 26 30 33 40 47 54 52 38 41 51 57 54
16 13 11 10 12 14 18 21 25 25 28 32 35 41 48 50 43 39 44 48 56 56
14 11 9 11 13 17 20 23 25 27 31 34 34 46 48 45 51 41 47 45 51 57
12 9 8 9 15 17 20 23 25 30 32 36 38 44 41 53 40 48 51 60 63 54
9 7 5 9 13 17 19 24 28 31 35 37 32 32 45 48 40 38 53 62 60 52
Wind_Direction_850mb
196 185 183 173 198 203 226 257 272 299 308 310 303 301 297 302 293 292 293 298 312 309
173 176 189 210 222 252 263 266 297 307 300 291 292 296 292 297 290 292 297 299 301 302
191 196 210 234 236 255 259 286 278 281 281 290 293 294 290 295 295 293 295 303 298 306
188 197 219 247 259 273 283 277 278 280 284 289 290 291 289 291 295 296 302 299 303 305
188 205 227 241 253 266 265 262 281 289 290 291 293 292 287 288 293 295 297 300 302 306
197 204 220 233 237 248 261 279 286 290 290 291 289 287 288 291 293 296 297 302 298 305
200 202 209 217 228 245 269 283 290 292 291 288 291 290 291 293 294 297 297 300 299 298
196 197 212 224 234 257 274 285 292 295 294 295 293 299 284 288 297 298 295 296 299 302
188 195 214 227 251 270 280 289 295 295 295 296 298 293 292 297 301 300 291 299 298 300
190 201 216 239 255 277 287 293 299 296 295 298 300 300 299 301 306 302 301 306 309 303
196 202 227 246 276 288 294 298 298 297 302 302 307 302 304 307 316 312 311 309 309 308
199 212 236 270 289 293 300 298 298 306 304 305 306 305 302 315 323 316 316 315 312 305
199 204 243 283 290 296 299 304 305 304 309 311 309 304 306 313 314 318 315 319 313 309
188 215 259 286 300 301 306 303 308 313 314 309 311 315 313 314 319 322 317 316 311 308